ギブス彗星

388P/Gibbs (2019)

English version
Home page
Updated on May 17, 2020

---------------------------------------------------------------------

・ プロフィール

符号 388P/2019 R2
検出日 2019年9月5日
検出光度 18.7等
検出者 H. Sato (Tokyo, Japan)

・ 写真集

・ 軌道要素

Epoch 2019 July 16.0 TT = JDT 2458680.5
T 2019 July 23.63532 TT                                 Rudenko
q   2.0050066            (2000.0)            P               Q
n   0.08193613     Peri.   42.42366     +0.21728053     -0.94518402
a   5.2499166      Node    37.05861     +0.75131810     +0.00252274
e   0.6180879      Incl.   23.85878     +0.62314548     +0.32652841
P  12.0
From 116 observations 2007 Oct. 12-2020 Feb. 20, mean residual 0".7.

・ 光度変化

        m1 = 12.0 + 5 logΔ + 15.0 log r

---------------------------------------------------------------------

軌道要素はM.P.E.C. 2020-F67に掲載されたものです。
光度グラフはComet for Windowsで作成したものです。

---------------------------------------------------------------------

Copyright(C) Seiichi Yoshida (comet@aerith.net). All rights reserved.